Wautoma, WI

3:58 AM CDT on July 23, 2017 (GMT -0500)
Wautoma

Weather History for KY50 - April, 2013

Change the Weather History Date:

Friday, April 19, 2013

  Actual Average (KPCZ) Record (KPCZ)
Temperature  
Mean Temperature 32 °F -  
Max Temperature 36 °F 58 °F 87 °F (1985)
Min Temperature 26 °F 37 °F 18 °F (1983)
Degree Days  
Heating Degree Days 33    
Moisture  
Dew Point 27 °F    
Average Humidity 81    
Maximum Humidity 100    
Minimum Humidity 60    
Precipitation  
Precipitation 0.00 in - - ()
Sea Level Pressure  
Sea Level Pressure 29.44 in    
Wind  
Wind Speed 16 mph (West)    
Max Wind Speed 26 mph    
Max Gust Speed 41 mph    
Visibility 6 miles    
Events Rain , Snow    
Averages and records for this station are not official NWS values.
T = Trace of Precipitation, MM = Missing Value Source: NWS Daily Summary

Daily Weather History Graph

Daily Weather History Graph

Search for Another Location

Airport or City:

Trip Planner

Search our weather history database for the weather conditions in past years. The results will help you decide how hot, cold, wet, or windy it might be!

Date:

Astronomy

Apr. 19, 2013 Rise Set
Actual Time 6:06 AM CDT 7:46 PM CDT
Civil Twilight 5:36 AM CDT 8:17 PM CDT
Nautical Twilight 4:59 AM CDT 8:54 PM CDT
Astronomical Twilight 4:19 AM CDT 9:34 PM CDT
Moon 1:18 PM CDT (4/19) 2:35 AM CDT (4/19)
Length of Visible Light 14h 40m
Length of Day
13h 39m
First Quarter, 62% of the Moon is Illuminated
Apr 19
First Quarter
Apr 25
Full
May 2
Last Quarter
May 9
New
May 17
First Quarter

Hourly Weather History & Observations

Time (CDT) Temp. Windchill Dew Point Humidity Pressure Visibility Wind Dir Wind Speed Gust Speed Precip Events Conditions
12:56 AM 37.4 °F 28.5 °F 33.8 °F 87% 29.29 in 10.0 mi SW 15.0 mph - N/A   Overcast
1:16 AM 35.6 °F 25.5 °F 33.8 °F 93% 29.29 in 4.0 mi SW 17.3 mph 25.3 mph 0.00 in Rain Light Rain
1:39 AM 35.6 °F 24.8 °F 32.0 °F 87% 29.28 in 7.0 mi SW 19.6 mph 26.5 mph 0.00 in Rain Light Rain
1:56 AM 34.0 °F 23.4 °F 32.0 °F 92% 29.30 in 8.0 mi SW 17.3 mph - 0.00 in Rain Light Rain
2:27 AM 33.8 °F 24.8 °F 30.2 °F 87% 29.28 in 5.0 mi SW 12.7 mph 21.9 mph 0.00 in Rain Light Rain
2:56 AM 32.9 °F 23.2 °F 30.0 °F 89% 29.29 in 10.0 mi WSW 13.8 mph 21.9 mph 0.00 in   Overcast
3:05 AM 33.8 °F 23.9 °F 30.2 °F 87% 29.28 in 4.0 mi SW 15.0 mph 19.6 mph 0.00 in Rain Light Rain
3:16 AM 33.8 °F 24.3 °F 30.2 °F 87% 29.28 in 10.0 mi SW 13.8 mph - 0.00 in   Overcast
3:27 AM 32.0 °F 22.5 °F 30.2 °F 93% 29.27 in 2.5 mi SW 12.7 mph 20.7 mph 0.00 in Snow Light Snow
3:32 AM 32.0 °F 22.5 °F 30.2 °F 93% 29.28 in 1.2 mi SW 12.7 mph 20.7 mph 0.00 in Snow Light Snow
3:39 AM 32.0 °F 23.6 °F 30.2 °F 93% 29.28 in 2.0 mi WSW 10.4 mph - 0.00 in Snow Light Snow
3:47 AM 32.0 °F 22.5 °F 30.2 °F 93% 29.28 in 3.0 mi WSW 12.7 mph - 0.00 in Snow Light Snow
3:49 AM 32.0 °F 22.1 °F 30.2 °F 93% 29.28 in 1.8 mi WSW 13.8 mph - 0.00 in Snow Light Snow
3:56 AM 32.0 °F 22.5 °F 30.2 °F 93% 29.28 in 1.2 mi West 12.7 mph - N/A Snow Light Snow
4:09 AM 30.2 °F 21.9 °F 30.2 °F 100% 29.28 in 2.0 mi WSW 9.2 mph - 0.00 in Snow Light Snow
4:16 AM 30.2 °F 20.2 °F 30.2 °F 100% 29.28 in 5.0 mi SW 12.7 mph - 0.00 in Snow Light Snow
4:22 AM 30.2 °F 20.2 °F 30.2 °F 100% 29.27 in 2.5 mi SW 12.7 mph - 0.00 in Snow Light Snow
4:29 AM 32.0 °F 23.0 °F 30.2 °F 93% 29.27 in 2.5 mi SW 11.5 mph - 0.00 in Snow Light Snow
4:34 AM 32.0 °F 21.6 °F 30.2 °F 93% 29.27 in 4.0 mi WSW 15.0 mph 19.6 mph 0.00 in   Mostly Cloudy
4:56 AM 32.0 °F 20.8 °F 29.1 °F 89% 29.29 in 10.0 mi WSW 17.3 mph 23.0 mph 0.00 in   Overcast
5:56 AM 31.1 °F 20.5 °F 28.0 °F 88% 29.29 in 5.0 mi WSW 15.0 mph 23.0 mph 0.00 in Snow Light Snow
6:18 AM 30.2 °F 18.5 °F 28.4 °F 93% 29.28 in 6.0 mi WSW 17.3 mph - 0.00 in   Overcast
6:56 AM 30.2 °F 19.8 °F 28.4 °F 93% 29.28 in 2.5 mi West 13.8 mph - N/A   Overcast
7:03 AM 30.2 °F 19.3 °F 28.4 °F 93% 29.29 in 1.8 mi West 15.0 mph 23.0 mph 0.00 in   Overcast
7:23 AM 30.2 °F 18.9 °F 28.4 °F 93% 29.29 in 1.5 mi West 16.1 mph 23.0 mph 0.00 in Snow Light Snow
7:30 AM 30.2 °F 18.9 °F 28.4 °F 93% 29.29 in 1.5 mi WSW 16.1 mph 21.9 mph 0.00 in Snow Light Snow
7:56 AM 31.1 °F 19.7 °F 29.1 °F 92% 29.31 in 1.8 mi West 17.3 mph 25.3 mph 0.00 in   Overcast
8:15 AM 30.2 °F 18.1 °F 28.4 °F 93% 29.30 in 1.8 mi West 18.4 mph 29.9 mph 0.00 in Snow Light Snow
8:27 AM 30.2 °F 18.5 °F 28.4 °F 93% 29.30 in 2.0 mi West 17.3 mph 23.0 mph 0.00 in Snow Light Snow
8:56 AM 31.1 °F 20.5 °F 29.1 °F 92% 29.33 in 3.0 mi West 15.0 mph - 0.00 in Snow Light Snow
9:04 AM 30.2 °F 18.5 °F 28.4 °F 93% 29.32 in 4.0 mi West 17.3 mph 25.3 mph 0.00 in Snow Light Snow
9:12 AM 30.2 °F 18.1 °F 28.4 °F 93% 29.33 in 6.0 mi WNW 18.4 mph 25.3 mph 0.00 in Snow Light Snow
9:56 AM 32.0 °F 19.2 °F 24.8 °F 75% 29.35 in 9.0 mi West 23.0 mph 33.4 mph N/A Snow Light Snow
10:56 AM 32.9 °F 19.6 °F 26.1 °F 76% 29.40 in 10.0 mi WNW 26.5 mph 32.2 mph 0.00 in Rain Light Rain
11:09 AM 33.8 °F 24.3 °F 24.8 °F 70% 29.40 in 10.0 mi WNW 13.8 mph 21.9 mph 0.00 in Rain Light Rain
11:18 AM 33.8 °F 23.2 °F 24.8 °F 70% 29.41 in 10.0 mi WNW 17.3 mph 32.2 mph 0.00 in Rain Light Rain
11:56 AM 32.9 °F 21.0 °F 24.1 °F 70% 29.44 in 6.0 mi WNW 20.7 mph 28.8 mph 0.00 in Snow Light Snow
12:33 PM 33.8 °F 23.2 °F 24.8 °F 70% 29.44 in 10.0 mi WNW 17.3 mph 28.8 mph 0.00 in Rain Light Rain
12:44 PM 35.6 °F 24.5 °F 23.0 °F 60% 29.44 in 10.0 mi WNW 20.7 mph 32.2 mph 0.00 in Rain Light Rain
12:56 PM 35.6 °F 25.2 °F 24.8 °F 65% 29.44 in 10.0 mi WNW 18.4 mph 27.6 mph N/A Rain Light Rain
1:03 PM 33.8 °F 21.9 °F 24.8 °F 70% 29.46 in 2.0 mi WNW 21.9 mph 32.2 mph 0.00 in Snow Light Snow
1:05 PM 32.0 °F 20.1 °F 24.8 °F 75% 29.46 in 1.2 mi WNW 19.6 mph 32.2 mph 0.00 in Snow Light Snow
1:08 PM 30.2 °F 18.1 °F 26.6 °F 86% 29.46 in 0.8 mi WNW 18.4 mph 32.2 mph 0.00 in Snow Light Snow
1:16 PM 33.8 °F 24.3 °F 30.2 °F 87% 29.46 in 1.2 mi WNW 13.8 mph - 0.00 in Snow Light Snow
1:18 PM 33.8 °F 23.9 °F 30.2 °F 87% 29.46 in 2.0 mi WNW 15.0 mph - 0.00 in Snow Light Snow
1:21 PM 33.8 °F 22.8 °F 28.4 °F 81% 29.46 in 10.0 mi WNW 18.4 mph 23.0 mph 0.00 in Snow Light Snow
1:29 PM 32.0 °F 18.9 °F 26.6 °F 80% 29.48 in 1.2 mi WNW 24.2 mph 38.0 mph 0.00 in Snow Light Snow
1:33 PM 30.2 °F 17.1 °F 24.8 °F 80% 29.48 in 1.0 mi WNW 21.9 mph 38.0 mph 0.00 in Snow Light Snow
1:37 PM 30.2 °F 18.5 °F 26.6 °F 86% 29.48 in 1.2 mi WNW 17.3 mph 27.6 mph 0.00 in Snow Light Snow
1:39 PM 32.0 °F 19.8 °F 26.6 °F 80% 29.48 in 3.0 mi WNW 20.7 mph 27.6 mph 0.00 in Snow Light Snow
1:56 PM 34.9 °F 23.3 °F 24.1 °F 65% 29.50 in 10.0 mi WNW 21.9 mph 35.7 mph 0.00 in   Mostly Cloudy
2:28 PM 33.8 °F 23.5 °F 28.4 °F 81% 29.51 in 2.5 mi WNW 16.1 mph 32.2 mph 0.00 in Snow Light Snow
2:35 PM 33.8 °F 21.3 °F 24.8 °F 70% 29.51 in 10.0 mi WNW 24.2 mph 28.8 mph 0.00 in   Scattered Clouds
2:44 PM 33.8 °F 22.5 °F 26.6 °F 75% 29.52 in 1.5 mi WNW 19.6 mph 29.9 mph 0.00 in Snow Light Snow
2:56 PM 34.0 °F 22.1 °F 24.1 °F 67% 29.54 in 10.0 mi WNW 21.9 mph 28.8 mph 0.00 in   Mostly Cloudy
3:15 PM 33.8 °F 20.8 °F 23.0 °F 65% 29.54 in 2.5 mi WNW 26.5 mph 41.4 mph 0.00 in Snow Light Snow
3:26 PM 33.8 °F 22.5 °F 24.8 °F 70% 29.54 in 8.0 mi NW 19.6 mph 26.5 mph 0.00 in Rain Light Rain
3:56 PM 33.8 °F 23.2 °F 24.8 °F 70% 29.57 in 10.0 mi WNW 17.3 mph 23.0 mph N/A Snow Light Snow
4:05 PM 33.8 °F 21.9 °F 23.0 °F 65% 29.58 in 2.5 mi West 21.9 mph 34.5 mph 0.00 in Snow Light Snow
4:19 PM 33.8 °F 22.5 °F 23.0 °F 65% 29.58 in 10.0 mi WNW 19.6 mph - 0.00 in   Mostly Cloudy
4:56 PM 34.9 °F 25.3 °F 23.0 °F 62% 29.63 in 10.0 mi NW 15.0 mph 26.5 mph 0.00 in   Overcast
5:19 PM 33.8 °F 22.8 °F 23.0 °F 65% 29.64 in 2.5 mi NW 18.4 mph 32.2 mph 0.00 in Snow Light Snow
5:29 PM 33.8 °F 22.8 °F 24.8 °F 70% 29.64 in 10.0 mi WNW 18.4 mph 27.6 mph 0.00 in   Mostly Cloudy
5:56 PM 34.0 °F 22.7 °F 23.0 °F 64% 29.68 in 10.0 mi West 19.6 mph - 0.00 in Snow Light Snow
6:02 PM 32.0 °F 19.5 °F 24.8 °F 75% 29.67 in 2.5 mi WNW 21.9 mph 28.8 mph 0.00 in Snow Light Snow
6:09 PM 30.2 °F 18.5 °F 26.6 °F 86% 29.67 in 1.8 mi WNW 17.3 mph - 0.00 in Snow Light Snow
6:13 PM 30.2 °F 20.2 °F 24.8 °F 80% 29.67 in 3.0 mi NW 12.7 mph - 0.00 in Snow Light Snow
6:38 PM 32.0 °F 20.5 °F 23.0 °F 69% 29.68 in 10.0 mi WNW 18.4 mph 25.3 mph 0.00 in Snow Light Snow
6:56 PM 33.8 °F 24.3 °F 21.2 °F 60% 29.70 in 10.0 mi NNW 13.8 mph - N/A   Mostly Cloudy
7:56 PM 30.0 °F 18.7 °F 19.0 °F 64% 29.77 in 10.0 mi NW 16.1 mph 28.8 mph 0.00 in   Overcast
8:56 PM 29.1 °F 20.0 °F 20.1 °F 69% 29.82 in 10.0 mi NW 10.4 mph - N/A   Partly Cloudy
9:56 PM 28.0 °F 17.5 °F 18.1 °F 66% 29.87 in 10.0 mi NW 12.7 mph - N/A   Scattered Clouds
10:56 PM 27.1 °F 17.5 °F 16.2 °F 63% 29.90 in 10.0 mi NW 10.4 mph - 0.00 in   Clear
11:56 PM 26.1 °F 14.0 °F 14.0 °F 60% 29.93 in 10.0 mi NNW 15.0 mph 23.0 mph N/A   Clear